Aérodrome :
LOGIN :

S'inscrire | Disclaimer

   EN    FR    IT 

 










Légende :    VFR   VFR Marginal   IFR   IFR Intensif   IFR Très Intensif
Visi : 
Plafond : 
>= 8 km
>= 3000ft
5 à 8 km
1000 à 3000 ft
1500m à 5 km
500 à 1000 ft
800 à 1500m
200 à 500 ft
< 800m
< 200 ft
Symboles :   Orages  Brouillard  Fortes neiges  Fortes précipitations  Vent > 20 kt
SIGMETs :   Divers  Orages  Givrage  Turbulence  Onde Orograph.  Cendres Volcan.







- Altitude de l'aérodrome : 1036 ft
- Code IATA : ERF


EDDE - Erfurt

DERNIER METAR :
  • 270620Z 19008KT CAVOK 07/03 Q1016 NOSIG

METARs EXPIRÉS :
  • 270550Z 20008KT CAVOK 06/03 Q1016 NOSIG
  • 270520Z 20009KT CAVOK 05/03 Q1016 NOSIG
  • 270450Z 19009KT CAVOK 04/02 Q1016 NOSIG
  • 270420Z 20008KT CAVOK 04/02 Q1016 NOSIG
  • 270350Z 20009KT CAVOK 04/02 Q1016 NOSIG

TAF TAF EDDE
Valide du 27 à 06h jusqu'au 28 à 06h UTC


270500Z 2706/2806 18007KT CAVOK
BECMG 2714/2716 09005KT
BECMG 2720/2722 22007KT
Pas de NOTAMs connus pour ce terrain.



MET'MAP, la Météo Aéronautique d'un coup d'oeil ! - Copyright ORBIFLY Décembre 2007 - Disclaimer

ORBIFLY MET'MAP TEAM :

Programmation & Développement : Alexandra Zaïnal
Conception & Développement : Baudouin d'Aumeries
Co-Programmation & Développement : Marc-Olivier Méhu
Soutien technique & logistique : Manuel Goepfert

Contact : metmap@orbifly.com




SOURCES & CREDITS :

   NOAA